Weather Roundup
Issued by NWS

Home | Current Version | Previous Version | Text Only | Print | Product List | Glossary On
Versions: 1 2 3 4 5 6 7 8 9 10 11 12 13 14 15 16 17 18 19 20 21 22 23 24 25 26 27 28 29 30 31 32 33 34 35 36 37 38 39 40 41 42 43 44 45 46 47 48 49 50
000
NZUS93 KARX 290310
HRRWXR

CURRENT HOURLY OBSERVATIONS ACROSS
MUCH OF THE UPPER MISSISSIPPI VALLEY
NATIONAL WEATHER SERVICE LA CROSSE WI
900 PM CST TUE JAN 28 2020


...SOUTHEAST MINNESOTA...


CITY           SKY/WX    TMP DP  RH WIND       PRES   REMARKS
ROCHESTER      CLOUDY    16  12  84 NE5       30.11F WCI   9
ROCHESTER/MAYO CLOUDY    17  15  88 N3        30.13F
WINONA         CLOUDY    19  16  86 NE3       30.18S
AUSTIN         CLOUDY    19  18  93 NE5       30.10F FOG     WCI  13
ALBERT LEA     CLOUDY    14  14 100 CALM      30.10F
DODGE CENTER   CLOUDY    16  12  86 E3        30.11S
PRESTON        CLOUDY    17  14  88 CALM      30.12S
OWATONNA       MOCLDY    18  16  93 CALM      30.12S FOG
FARIBAULT      FAIR      18  16  93 CALM      30.13F
$$

...ELSEWHERE IN MINNESOTA...


CITY           SKY/WX    TMP DP  RH WIND       PRES   REMARKS
MINNEAPOLIS    CLOUDY    18  13  80 NE6       30.16S WCI  10
INTNL FALLS    CLOUDY    16   9  74 E6        30.14F WCI   7
DULUTH         CLOUDY    20  13  74 NE3       30.11S
RED WING       CLOUDY    18  14  86 CALM      30.16S
REDWOOD FALLS  CLOUDY    13  10  88 CALM      30.14S
MANKATO          N/A    N/A N/A N/A MISG        N/A
WORTHINGTON    CLOUDY    14  12  92 CALM      30.09S
FAIRMONT       CLOUDY    14  11  87 E5        30.14R WCI   6
$$

...SOUTHWEST WISCONSIN...


CITY           SKY/WX    TMP DP  RH WIND       PRES   REMARKS
LA CROSSE      CLOUDY    21  14  74 NE5       30.16S WCI  15
PRAIRIE DU CHI CLOUDY    24  18  75 CALM      30.15R
BOSCOBEL       CLOUDY    26  18  71 CALM      30.15R
LONE ROCK      CLOUDY    24  17  74 NE5       30.14R WCI  18
PLATTEVILLE    CLOUDY    24  22  92 N3        30.13R
FORT MC COY    CLOUDY    20  17  85 NE3       30.15S
CAMP DOUGLAS   CLOUDY    19  18  93 CALM      30.13S
MAUSTON-NEW LI CLOUDY    20  16  82 CALM      30.13S
VIROQUA        CLOUDY    19  18  96 NE3       30.10S
WIS DELLS      CLOUDY    20  17  86 CALM      30.12S
$$

...ELSEWHERE IN WISCONSIN...


CITY           SKY/WX    TMP DP  RH WIND       PRES   REMARKS
MILWAUKEE      CLOUDY    29  19  66 NW5       30.12F WCI  24
MADISON        FLURRIES  24  20  84 N7        30.12F WCI  16
GREEN BAY      CLOUDY    25  14  63 W3        30.14S
EAU CLAIRE     FAIR      14   8  77 CALM      30.14R
BLACK RVR FLS  CLOUDY    20  15  82 CALM      30.14S
MEDFORD        CLOUDY    16  12  83 CALM      30.10R
WAUSAU         CLOUDY    22  13  68 CALM      30.09S
WIS RAPIDS     CLOUDY    20  13  74 CALM      30.13S
MARSHFIELD     CLOUDY    17  12  80 NW5       30.10R WCI  10
RICE LAKE      CLOUDY    20  15  81 CALM      30.14S
$$

...NORTHEAST IOWA...


CITY           SKY/WX    TMP DP  RH WIND       PRES   REMARKS
WATERLOO       CLOUDY    19  14  81 E8        30.13F WCI   9
DUBUQUE        CLOUDY    24  19  81 NE3       30.12R
DECORAH        CLOUDY    19  18  93 CALM      30.11R
MASON CITY     CLOUDY    15  11  83 CALM      30.13R
CHARLES CITY   CLOUDY    18  16  93 E3        30.11F
OELWEIN        CLOUDY    18  19 100 NE5       30.12F WCI  11
$$

...ELSEWHERE IN IOWA...


CITY           SKY/WX    TMP DP  RH WIND       PRES   REMARKS
DES MOINES     CLOUDY    21  18  88 E3        30.14S
IOWA CITY      CLOUDY    22  17  81 NE8       30.17S WCI  12
FORT DODGE     CLOUDY    17  15  92 E8        30.12S WCI   7
MARSHALLTOWN   CLOUDY    16  16 100 CALM      30.14R
CEDAR RAPIDS   CLOUDY    20  18  92 E5        30.13S WCI  13
$$

...NORTHERN ILLINOIS...


CITY           SKY/WX    TMP DP  RH WIND       PRES   REMARKS
CHICAGO-OHARE  CLOUDY    31  22  69 N8        30.11S WCI  23
CHICAGO-MIDWAY FLURRIES  33  23  66 NE6       30.12S WCI  28
MOLINE         CLOUDY    25  19  78 CALM      30.15S
ROCKFORD       CLOUDY    29  21  72 NE9       30.14R WCI  20
PEORIA         CLOUDY    25  24  96 NW5       30.15R WCI  19
$$

NOTE: "FAIR" INDICATES FEW OR NO CLOUDS BELOW 12,000 FEET WITH NO
SIGNIFICANT WEATHER AND/OR OBSTRUCTIONS TO VISIBILITY. WIND
SPEEDS ARE IN MILES-PER-HOUR.




USA.gov is the U.S. government's official web portal to all federal, state and local government web resources and services.